Location: The Saddle
(36.8333°N, 80.3417°W)
Time: 12:19:13
(UTC-04:00)

SR - Pass Details

Date: 31 May 2024
Orbit: 580 x 858 km, 66.7° (Epoch: 14 June)

Event Time Altitude Azimuth Distance (km) Brightness Sun altitude
Rises 02:32:17 0° 325° (NW) 2,816 ? -28.7°
Reaches altitude 10° 02:34:35 10° 320° (NW) 1,901 ? -28.5°
Enters shadow 02:35:43 17° 314° (NW) 1,478 ? -28.5°
